Morgantown, WV

8:41 PM EST on January 20, 2017 (GMT -0500)
Morgantown Municipal-Hart

Weather History for KMGW - November, 2011

Change the Weather History Date:

Friday, November 18, 2011

  Actual Average Record
Temperature  
Mean Temperature 34 °F 44 °F  
Max Temperature 43 °F 53 °F 79 °F (1958)
Min Temperature 24 °F 36 °F 12 °F (1959)
Degree Days  
Heating Degree Days 31 21  
Month to date heating degree days 288 325  
Since 1 July heating degree days 704 767  
Cooling Degree Days 0 0  
Month to date cooling degree days 3 0  
Year to date cooling degree days 1009 813  
Moisture  
Dew Point 16 °F    
Average Humidity 52    
Maximum Humidity 74    
Minimum Humidity 30    
Precipitation  
Precipitation 0.00 in 0.12 in 0.75 in (1984)
Month to date precipitation 1.73 2.06  
Year to date precipitation 51.28 37.52  
Sea Level Pressure  
Sea Level Pressure 30.38 in    
Wind  
Wind Speed 3 mph (South)    
Max Wind Speed 10 mph    
Max Gust Speed 15 mph    
Visibility 10 miles    
Events      
T = Trace of Precipitation, MM = Missing Value Source: NWS Daily Summary

Daily Weather History Graph

Daily Weather History Graph

Search for Another Location

Airport or City:

Trip Planner

Search our weather history database for the weather conditions in past years. The results will help you decide how hot, cold, wet, or windy it might be!

Date:

Astronomy

Nov. 18, 2011 Rise Set
Actual Time 7:07 AM EST 5:02 PM EST
Civil Twilight 6:38 AM EST 5:31 PM EST
Nautical Twilight 6:05 AM EST 6:03 PM EST
Astronomical Twilight 5:33 AM EST 6:35 PM EST
Moon No Moon Rise 12:46 PM EST (11/18)
Length of Visible Light 10h 53m
Length of Day
9h 55m
Waning Gibbous, 49% of the Moon is Illuminated
Nov 18
Waning Gibbous
Nov 25
New
Dec 2
First Quarter
Dec 10
Full
Dec 17
Last Quarter

Hourly Weather History & Observations

Time (EST) Temp. Windchill Dew Point Humidity Pressure Visibility Wind Dir Wind Speed Gust Speed Precip Events Conditions
12:53 AM 30.9 °F - 14.0 °F 50% 30.33 in 10.0 mi Calm Calm - N/A   Clear
1:53 AM 30.0 °F 25.2 °F 14.0 °F 51% 30.35 in 10.0 mi SW 4.6 mph - N/A   Clear
2:53 AM 28.9 °F 25.2 °F 14.0 °F 54% 30.38 in 10.0 mi SW 3.5 mph - N/A   Clear
3:53 AM 28.4 °F 23.3 °F 15.8 °F 59% 30.36 in 10.0 mi SW 4.6 mph - N/A   Clear
4:53 AM 28.0 °F 22.8 °F 15.1 °F 58% 30.42 in 10.0 mi SW 4.6 mph - N/A   Clear
5:53 AM 25.0 °F - 16.0 °F 69% 30.43 in 10.0 mi Calm Calm - N/A   Clear
6:53 AM 24.8 °F - 17.6 °F 74% 30.41 in 10.0 mi Calm Calm - N/A   Clear
7:53 AM 26.1 °F 21.9 °F 18.0 °F 71% 30.46 in 10.0 mi South 3.5 mph - N/A   Clear
8:53 AM 30.0 °F 25.2 °F 17.1 °F 59% 30.48 in 10.0 mi South 4.6 mph - N/A   Clear
9:53 AM 33.1 °F 26.9 °F 16.0 °F 50% 30.49 in 10.0 mi South 6.9 mph - N/A   Clear
10:53 AM 36.0 °F 30.3 °F 16.0 °F 44% 30.49 in 10.0 mi South 6.9 mph - N/A   Clear
11:53 AM 39.0 °F 34.0 °F 16.0 °F 39% 30.46 in 10.0 mi SSE 6.9 mph - N/A   Clear
12:53 PM 39.9 °F 35.8 °F 15.1 °F 36% 30.43 in 10.0 mi SSW 5.8 mph - N/A   Clear
1:53 PM 42.1 °F 37.1 °F 17.1 °F 37% 30.40 in 10.0 mi SSE 8.1 mph - N/A   Clear
2:53 PM 43.0 °F 39.5 °F 15.1 °F 32% 30.39 in 10.0 mi Variable 5.8 mph - N/A   Clear
3:53 PM 43.0 °F 41.3 °F 14.0 °F 31% 30.37 in 10.0 mi Variable 3.5 mph - N/A   Clear
4:53 PM 41.0 °F - 15.1 °F 35% 30.35 in 10.0 mi Calm Calm - N/A   Clear
5:53 PM 37.9 °F 35.5 °F 16.0 °F 41% 30.34 in 10.0 mi SE 3.5 mph - N/A   Scattered Clouds
6:53 PM 37.4 °F - 15.8 °F 41% 30.29 in 10.0 mi Calm Calm - N/A   Clear
7:53 PM 33.1 °F - 18.0 °F 54% 30.33 in 10.0 mi Calm Calm - N/A   Clear
8:53 PM 34.0 °F 28.0 °F 18.0 °F 52% 30.30 in 10.0 mi SE 6.9 mph - N/A   Clear
9:53 PM 35.1 °F - 17.1 °F 48% 30.29 in 10.0 mi Calm Calm - N/A   Clear
10:53 PM 36.0 °F - 18.0 °F 48% 30.27 in 10.0 mi Calm Calm - N/A   Clear
11:53 PM 35.1 °F - 19.0 °F 52% 30.27 in 10.0 mi Calm Calm - N/A   Clear